Home   Weather   Tucson   Past weeks
Flag for USA

Past Weather in Tucson, Arizona, USA — June 2018

Now
74 °F

Clear.


Feels Like: 77 °F
Forecast: 103 / 75 °F
Wind: 3 mph from East

Location: Davis-Monthan Air Force Base

Current Time: May 31, 2020 at 6:14:10 am

Latest Report: May 31, 2020 at 4:58 am


Visibility: 10 mi

Pressure: 29.77 "Hg (27.28 "Hg at 758m altitude)

Humidity: 32%

Dew Point: 42 °F

Location of TucsonLocation

June 2018 Weather in Tucson — Graph

°F

High & Low Weather Summary for June 2018

 TemperatureHumidityPressure
High107 °F (Jun 8, 3:58 pm)100% (Jun 15, 8:58 pm)29.92 "Hg (Jun 15, 8:58 pm)
Low60 °F (Jun 1, 4:58 am)3% (Jun 2, 2:42 pm)29.63 "Hg (Jun 22, 6:58 pm)
Average87 °F22%29.76 "Hg
* Reported Jun 1 12:58 am — Jun 30 11:58 pm, Tucson. Weather by CustomWeather, © 2020

Note: Actual official high and low records may vary slightly from our data, if they occured in-between our weather recording intervals... More about our weather records

Tucson Weather History for June 1, 2018

Scroll right to see more
 ConditionsComfort  
Time TempWeatherWind HumidityBarometerVisibility
12:58 am
Fri, Jun 1
68 °FClear.7 mph15%29.92 "Hg10 mi
1:58 am66 °FClear.8 mph15%29.78 "Hg10 mi
2:58 am64 °FClear.3 mph17%29.78 "Hg10 mi
3:58 am62 °FClear.8 mph18%29.79 "Hg10 mi
4:58 am60 °FClear.6 mph19%29.79 "Hg10 mi
5:58 am60 °FSunny.9 mph19%29.82 "Hg10 mi
6:58 am69 °FSunny.5 mph16%29.82 "Hg10 mi
7:58 am77 °FSunny.3 mph13%29.83 "Hg10 mi
8:58 am84 °FSunny.No wind9%29.82 "Hg10 mi
9:58 am88 °FSunny.5 mph7%29.82 "Hg10 mi
10:58 am90 °FSunny.7 mph7%29.82 "Hg10 mi
11:58 am93 °FSunny.5 mph6%29.83 "Hg10 mi
12:58 pm96 °FPassing clouds.10 mph5%29.82 "Hg10 mi
1:58 pm99 °FSunny.9 mph5%29.80 "Hg10 mi
2:58 pm99 °FSunny.12 mph5%29.78 "Hg10 mi
3:58 pm99 °FSunny.10 mph5%29.76 "Hg10 mi
4:58 pm97 °FSunny.14 mph6%29.77 "Hg10 mi
5:58 pm96 °FSunny.15 mph6%29.75 "Hg10 mi
6:58 pm93 °FSunny.13 mph6%29.76 "Hg10 mi
7:58 pm87 °FClear.6 mph7%29.77 "Hg10 mi
8:58 pm83 °FClear.5 mph10%29.79 "Hg10 mi
9:58 pm79 °FClear.7 mph11%29.80 "Hg10 mi
10:58 pm75 °FClear.7 mph13%29.82 "Hg10 mi
11:58 pm72 °FClear.7 mph14%29.82 "Hg10 mi
Weather by CustomWeather, © 2020

See weather overview

Advertising